Tracking 28081 objects as of 27-Sep-2023
HD Live streaming from Space Station
objects crossing your sky now

KX-09

Track KX-09 now!
10-day predictions


NORAD ID: 44520
Int'l Code: 2019-058B
Perigee: 591.8 km
Apogee: 609.9 km
Inclination: 97.8 °
Period: 96.6 minutes
Semi major axis: 6971 km
RCS: Unknown
Launch date: August 30, 2019
Source: People's Republic of China (PRC)
Launch site: Jiuquan Satellite Launch Center, China (JSC)
Your satellite tracking list
Your tracking list is empty




NASA's NSSDC Master Catalog

Two Line Element Set (TLE):
1 44520U 19058B   23270.36809621  .00003165  00000-0  32241-3 0  9997
2 44520  97.7943 275.7425 0012984  56.7875 303.4586 14.91363728221626
Source of the keplerian elements: AFSPC